Home   Weather   Pago Pago   Past weeks

Flag for American Samoa Past Weather in Pago Pago, American Samoa — Yesterday and Last 2 Weeks

Now
75 °F

Passing clouds.


Feels Like: 73 °F
Forecast: 77 / 83 °F
Wind: 3 mph from North

Location: Pago Pago / Int. Airp.

Current Time: Aug 19, 2018 at 4:38:18 am

Latest Report: Aug 19, 2018 at 3:50 am


Visibility: 10 mi

Pressure: 29.83 "Hg

Humidity: 94%

Dew Point: 73 °F

Location of Pago PagoLocation

Past Weather in Pago Pago — Graph

°F

Pago Pago Temperature Yesterday

Maximum temperature yesterday: 84 °F (at 3:53 pm)
Minimum temperature yesterday: 75 °F (at 12:50 am)
Average temperature yesterday: 78 °F

High & Low Weather Summary for the Past Weeks

 TemperatureHumidityPressure
High86 °F (Aug 14, 11:50 am)96% (Aug 13, 2:50 am)29.96 "Hg (Aug 13, 2:50 am)
Low72 °F (Aug 10, 4:50 am)55% (Aug 8, 1:50 pm)29.72 "Hg (Aug 5, 3:50 pm)
Average79 °F78%29.85 "Hg
* Reported Aug 4 3:50 am — Aug 19 3:50 am, Pago Pago. Weather by CustomWeather, © 2018

Note: Actual official high and low records may vary slightly from our data, if they occured in-between our weather recording intervals... More about our weather records

Advertising

Pago Pago Weather History for the Previous 24 Hours

Scroll right to see more
 ConditionsComfort  
Time TempWeatherWind HumidityBarometerVisibility
3:50 am
Sun, Aug 19
75 °FPassing clouds.3 mph94%29.83 "Hg10 mi
2:50 am75 °FClear.3 mph94%29.84 "Hg10 mi
1:50 am75 °FClear.2 mph93%29.85 "Hg10 mi
12:50 am75 °FClear.2 mph93%29.86 "Hg10 mi
11:50 pm
Sat, Aug 18
75 °FPassing clouds.2 mph94%29.88 "Hg10 mi
10:50 pm76 °FPassing clouds.2 mph91%29.88 "Hg10 mi
9:54 pm76 °FPassing clouds.3 mph89%29.89 "Hg10 mi
8:50 pm76 °FPassing clouds.3 mph87%29.89 "Hg10 mi
7:50 pm77 °FPassing clouds.3 mph88%29.88 "Hg10 mi
6:50 pm79 °FPassing clouds.2 mph89%29.86 "Hg11 mi
5:50 pm82 °FScattered clouds.3 mph81%29.85 "Hg12 mi
4:51 pm82 °FBroken clouds.5 mph80%29.83 "Hg12 mi
3:53 pm84 °FScattered clouds.2 mph78%29.83 "Hg12 mi
2:54 pm83 °FScattered clouds.3 mph81%29.83 "Hg12 mi
1:50 pm79 °FBroken clouds.6 mph90%29.86 "Hg12 mi
12:50 pm76 °FRain showers. Mostly cloudy.3 mph92%29.88 "Hg3 mi
11:53 am77 °FRain showers. Mostly cloudy.No wind89%29.90 "Hg4 mi
11:03 am79 °FLots of rain. Mostly cloudy.9 mph89%29.92 "Hg1 mi
9:50 am83 °FScattered showers. Scattered clouds.7 mph85%29.92 "Hg12 mi
8:50 am82 °FScattered clouds.2 mph84%29.91 "Hg12 mi
7:50 am78 °FBroken clouds.No wind91%29.91 "Hg12 mi
6:51 am77 °FBroken clouds.No wind89%29.90 "Hg12 mi
5:50 am77 °FPartly cloudy.No wind91%29.88 "Hg10 mi
4:50 am78 °FPartly cloudy.No wind90%29.86 "Hg10 mi
Weather by CustomWeather, © 2018

See weather overview